Погода в Спалдинге

Великобритания     52°47′32″N   0°08′38″E
темп.,
°C
ветер,
м/с
пор.,
м/с
влажн.,
%
обл.,
%
осадки,
мм/ч
давл.,
гПа
погр.,
м
15 мая, сб
сб1501:00+6ююв2395100 0.3 100645
04:00+7юв2596100 0.0 1004150
07:00+8юв3695100 0.0 1003235
10:00+11ююв4682100 0.2 1001806
13:00+9ю4794100 2.7 1000455
16:00+10юв248999 0.8 999445
19:00+11ю238763 1.7 998449
22:00+8ююв3495100 0.6 99957
16 мая, вс
вс1601:00+8ююз369761 0.8 998178
04:00+5юз349511 0.0 99877
07:00+7юз3694100 0.0 998193
10:00+11юз4579100 0.0 998859
13:00+14ююз4568100 0.9 9971286
16:00+14ююз447399 1.1 9961094
19:00+12ю228493 3.0 996278
22:00+8ююв119260 0.7 99710
17 мая, пн
пн1701:00+7ссз119319 0.7 99810
04:00+7сз3395100 0.0 99957
07:00+8сз359479 0.0 1001189
10:00+12ссз338290 0.5 1003815
13:00+13с3379100 2.0 1004910
16:00+13з127897 1.8 1005581
19:00+12ссз358879 5.1 1006387
22:00+8зсз389367 0.5 1008156
18 мая, вт
вт1801:00+6з4119374 0.5 1009212
04:00+5з411936 0.0 1010230
07:00+7з5109191 0.0 1012318
10:00+12з67774 0.3 1013947
13:00+14з79629 1.4 10141835
16:00+14зсз696110 0.9 10141943
19:00+12зсз47737 1.3 1015322
22:00+7з46865 0.1 101693
19 мая, ср
ср1901:00+6зюз410926 0.1 1016198
04:00+6з512925 0.0 1016282
07:00+7з6128919 0.0 1018566
10:00+10з6108069 0.0 1019861
13:00+13з787191 0.2 10191329
16:00+12з6881100 0.9 1019932
19:00+12зсз4785100 1.8 1019526
22:00+8зюз3491100 0.3 101963